Regional Weather Roundup
Issued by NWS

Home | Current Version | Previous Version | Text Only | Print | Product List | Glossary On
Versions: 1 2 3 4 5 6 7 8 9 10 11 12 13 14 15 16 17 18 19 20 21 22 23 24 25 26 27 28 29 30 31 32 33 34 35 36 37 38 39 40 41 42 43 44 45 46 47 48 49 50
000
ASUS45 KBOI 041810
RWRID
WEATHER ROUNDUP FOR IDAHO
NATIONAL WEATHER SERVICE BOISE ID
1200 PM MDT MON MAY 04 2015

NOTE: "FAIR" INDICATES FEW OR NO CLOUDS BELOW 12000 FEET
WITH NO SIGNIFICANT WEATHER AND/OR OBSTRUCTIONS TO VISIBILITY

IDZ012-014-041900-
SOUTHWEST IDAHO


CITY           SKY/WX    TMP DP  RH WIND       PRES   REMARKS
BOISE          SUNNY     75  40  28 S10       29.87F
CALDWELL       SUNNY     68  36  30 SE6       29.89S
MOUNTAIN HOME  SUNNY     72  40  31 E8        29.88F
$$

IDZ016-017-041900-
SOUTHCENTRAL IDAHO


CITY           SKY/WX    TMP DP  RH WIND       PRES   REMARKS
BURLEY         SUNNY     72  37  28 NE8       29.92F
JEROME         SUNNY     73  39  29 NE9       29.93F
TWIN FALLS     SUNNY     73  43  33 E12       29.92F
$$

IDZ019>023-041900-
SOUTHEAST IDAHO


CITY           SKY/WX    TMP DP  RH WIND       PRES   REMARKS
IDAHO FALLS    MOSUNNY   67  41  38 SW7       29.99F
POCATELLO      MOSUNNY   71  39  31 CALM      29.97F
REXBURG        SUNNY     66  39  37 S9        29.99F
$$

IDZ006-010-011-018-031-032-041900-
CENTRAL IDAHO MOUNTAINS


CITY           SKY/WX    TMP DP  RH WIND       PRES   REMARKS
MCCALL         PTSUNNY   61  31  32 E5        29.94S
HAILEY         MOSUNNY   64  45  48 SE6       30.00F
STANLEY        NOT AVBL
SALMON           N/A     63  37  39 CALM      29.94F
CHALLIS        PTSUNNY   64  35  34 CALM      29.97F
$$

IDZ002-004-006-007-026-041900-
NORTHERN IDAHO


CITY           SKY/WX    TMP DP  RH WIND       PRES   REMARKS
LEWISTON       SUNNY     65  38  36 CALM      29.87F
LOWELL           N/A     65  34  31 N3        29.88F
COEUR D`ALENE  SUNNY     63  34  34 CALM      29.91F
MULLAN PASS    SUNNY     53  22  29 VRB3      29.97S
$$


USA.gov is the U.S. government's official web portal to all federal, state and local government web resources and services.